Weather Service Report


098 
ASUS43 KFSD 281810
RWRFSD

WEATHER ROUNDUP FOR SE SOUTH DAKOTA/SW MINNESOTA/NW IOWA
NATIONAL WEATHER SERVICE SIOUX FALLS SD
100 PM CDT THU AUG 28 2014

NOTE: "FAIR" INDICATES FEW OR NO CLOUDS BELOW 12,000 FEET WITH NO
SIGNIFICANT WEATHER AND OR OBSTRUCTIONS TO VISIBILITY.


SDZ038>040-050-052>070-281900-
SOUTHEAST SOUTH DAKOTA
  
CITY           SKY/WX    TMP DP  RH WIND       PRES   REMARKS
CHAMBERLAIN    CLOUDY    73  69  87 SE7       29.87F                  
6HR MIN TEMP:  66; 6HR MAX TEMP:  73; 6HR PCP:  0.02;                

HURON          CLOUDY    70  67  90 SE9       29.89F                  
6HR MIN TEMP:  67; 6HR MAX TEMP:  70; 6HR PCP:  0.43;                

MADISON        CLOUDY    66  66 100 SE10      29.93F                  
MITCHELL       CLOUDY    71  68  90 MISG      29.89F                  
6HR MIN TEMP:  68; 6HR MAX TEMP:  72;                                

SIOUX FALLS    CLOUDY    71  67  87 SE8       29.92F                  
6HR MIN TEMP:  67; 6HR MAX TEMP:  71; 6HR PCP:  0.29;                

WINNER         MOCLDY    74  66  76 CALM      29.89F                  
YANKTON        CLOUDY    73  70  88 E7        29.89F                  
$$

MNZ071-072-080-081-089-090-097-098-281900-
SOUTHWEST MINNESOTA
  
CITY           SKY/WX    TMP DP  RH WIND       PRES   REMARKS
FAIRMONT       CLOUDY    66  63  88 SE14      29.98F                  
JACKSON        CLOUDY    70  66  88 SE16      29.98F                  
LUVERNE        CLOUDY    72  68  88 SE10G16   29.93F                  
MARSHALL       CLOUDY    66  63  88 SE13      29.95F                  
6HR MIN TEMP:  63; 6HR MAX TEMP:  66; 6HR PCP:  0.02;                

MONTEVIDEO     LGT RAIN  66  66 100 SE12      29.98F                  
PIPESTONE      DRIZZLE   66  64  94 SE9       29.95F                  
REDWOOD FALLS  LGT RAIN  66  64  93 E9        29.98F FOG              
TRACY          LGT RAIN  66  65  96 SE6       29.97F                  
WINDOM         CLOUDY    70  64  83 SE10      29.97F                  
WORTHINGTON    CLOUDY    68  66  94 SE13      29.97F                  
$$

IAZ001>003-012>014-020>022-031-032-NEZ013-014-SDZ071-281900-
NORTHWEST IOWA
  
CITY           SKY/WX    TMP DP  RH WIND       PRES   REMARKS
DENISON        CLOUDY    75  72  88 S9G16     29.92F                  
ESTHERVILLE    CLOUDY    67  66  97 SE12      29.97F                  
LE MARS        CLOUDY    73  70  88 SE7G13    29.92F                  
ORANGE CITY    CLOUDY    72  66  83 SE5       29.93F                  
SHELDON        CLOUDY    70  68  94 SE8G15    29.93F FOG              
SIOUX CITY     CLOUDY    76  71  85 S12       29.89F                  
6HR MIN TEMP:  68; 6HR MAX TEMP:  77; 6HR PCP:  0.13;                

SPENCER        LGT RAIN  69  67  93 SE12      29.95F FOG              
6HR MIN TEMP:  65; 6HR MAX TEMP:  69; 6HR PCP:  0.30;                

STORM LAKE     CLOUDY    70  70 100 SE8       29.95F                  
$$
 
ABBREVIATIONS USED IN REMARKS
   TC - TEMPERATURE IN CELSIUS
  WCI - WIND CHILL INDEX
   HX - HEAT INDEX
  VSB - VISIBILITY



102 
ASUS43 KFSD 281810
RWRSD 

WEATHER ROUNDUP FOR SOUTH DAKOTA
NATIONAL WEATHER SERVICE SIOUX FALLS SD
100 PM CDT THU AUG 28 2014

NOTE: "FAIR" INDICATES FEW OR NO CLOUDS BELOW 12,000 FEET WITH NO
SIGNIFICANT WEATHER AND/OR OBSTRUCTIONS TO VISIBILITY.


SDZ001>005-009-010-012>017-281900-
NORTHWEST AND NORTH CENTRAL SOUTH DAKOTA
  
CITY           SKY/WX    TMP DP  RH WIND       PRES   REMARKS
BUFFALO          N/A     81  58  45 S5        29.90F                  
FAITH            N/A     70  63  78 N3        29.96F                  
MOBRIDGE       LGT RAIN  68  67  96 CALM      29.91F                  
$$
 
SDZ012>016-024>037-041>051-057-063-072>074-281900-
SOUTHWEST AND SOUTH CENTRAL SOUTH DAKOTA
  
CITY           SKY/WX    TMP DP  RH WIND       PRES   REMARKS
RAPID CTY ARPT CLOUDY    73  59  61 N5        30.00F                  
PIERRE         CLOUDY    70  68  93 N5        29.89F                  
CUSTER         CLOUDY    67  48  50 NE3       30.12F                  
ELLSWORTH AFB  CLOUDY    72  59  62 VRB6      30.00F                  
PHILIP         PTSUNNY   74  64  71 NW10      29.93F                  
PINE RIDGE     CLOUDY    72  63  73 N9        30.00F                  
WINNER         MOCLDY    74  66  76 CALM      29.89F                  
$$
 
SDZ004>011-016>023-039-040-281900-
NORTHEAST SOUTH DAKOTA
  
CITY           SKY/WX    TMP DP  RH WIND       PRES   REMARKS
ABERDEEN       CLOUDY    69  67  93 E9        29.92F                  
WATERTOWN      LGT RAIN  65  64  97 SE6       29.95F                  
SISSETON         N/A     66  65  96 SE6       29.95F                  
$$
 
SDZ017-020-022-023-036>040-048>070-281900-
SOUTHEAST SOUTH DAKOTA
  
CITY           SKY/WX    TMP DP  RH WIND       PRES   REMARKS
SIOUX FALLS    CLOUDY    71  67  87 SE8       29.92F                  
HURON          CLOUDY    70  67  90 SE9       29.89F                  
CHAMBERLAIN    CLOUDY    73  69  87 SE7       29.87F                  
MITCHELL       CLOUDY    71  68  90 MISG      29.89F                  
YANKTON        CLOUDY    73  70  88 E7        29.89F                  
$$
 
ABBREVIATIONS USED IN REMARKS
   TC - TEMPERATURE IN CELSIUS
  WCI - WIND CHILL INDEX
   HX - HEAT INDEX
  VSB - VISIBILITY


Return to Home page


Western Regional Climate Center, wrcc@dri.edu